Regional Weather Roundup
Issued by NWS

Home | Current Version | Previous Version | Text Only | Print | Product List | Glossary On
Versions: 1 2 3 4 5 6 7 8 9 10 11 12 13 14 15 16 17 18 19 20 21 22 23 24 25 26 27
000
ASUS42 KTBW 261416
RWRFL
FLORIDA REGIONAL WEATHER ROUNDUP
NATIONAL WEATHER SERVICE TAMPA BAY RUSKIN FL
900 AM EST SUN FEB 26 2017

NOTE: "FAIR" INDICATES FEW OR NO CLOUDS BELOW 12,000 FEET WITH NO
SIGNIFICANT WEATHER AND/OR OBSTRUCTIONS TO VISIBILITY.

FLZ001>010-012>015-112-114-115-261500-
PANHANDLE FLORIDA

CITY           SKY/WX    TMP DP  RH WIND       PRES   REMARKS
PENSACOLA      SUNNY     50  29  44 NE7       30.21R
PENSACOLA NAS  SUNNY     52  31  44 NE15      30.20R
MILTON NAS     LGT RAIN  47  29  49 NE9       30.21R WCI  43
CRESTVIEW      SUNNY     48  28  46 E7        30.22R WCI  45
DUKE FIELD     FAIR      47  28  47 NE7       30.20R WCI  44
VALPARAISO     SUNNY     50  26  39 E12       30.21R
MARY ESTHER    SUNNY     50  21  32 E8        30.20R
TRI COUNTY     FAIR      50  30  46 NE8       30.24R
PANAMA CITY    FAIR      51  29  42 NE13      30.20R
TYNDALL AFB    SUNNY     51  30  44 NE12      30.22R
APALACHICOLA   SUNNY     53  30  41 NE16G22   30.20R

STATION/POSITION SKY/WX   TEMP    WIND        PRES    WAVE   SWELL
                          AIR SEA DIR/SP/G            HT/PER HT/PER
                          (F)     (DEG/KT/KT) (MB)    (FT/S) (FT/S)
30.1N   87.6W              56 68   60/ 19/ 23 1022.0R   3/ 4
28.8N   86.0W              63 71              1021.7R   5/ 6
PANAMA CITY BEAC           51      80/  7/ 16 1023.1R
TOWER C                    56      50/ 20/ 22 1022.9R
28.5N   84.5W              64 69   60/ 17/ 21 1021.2R   5/ 6

$$
FLZ011-016>038-118-127-128-134-139-239-261500-
NORTH FLORIDA

CITY           SKY/WX    TMP DP  RH WIND       PRES   REMARKS
MARIANNA       SUNNY     49  31  49 NE8       30.23R
TALLAHASSEE    SUNNY     53  27  36 NE10      30.22R
PERRY          SUNNY     52  28  39 NE8       30.23R
CROSS CITY     SUNNY     54  30  40 NE13      30.21R
LAKE CITY      FAIR      52  30  43 N10G16    30.22R
GAINESVILLE    SUNNY     54  29  38 N10       30.21R
WILLISTON      SUNNY     57  32  38 N12       30.21R
PALATKA        FAIR      55  32  41 N9        30.21R
MAYPORT NAS    SUNNY     57  33  40 N14G21    30.20R
JACKSONVILLE   SUNNY     53  29  39 N13       30.21R
JAX NAS        SUNNY     55  30  38 N14       30.22R
FERNANDINA BEA FAIR      57  34  41 N8        30.19R
ST AUGUSTINE   SUNNY     58  39  49 N10       30.21R
PALM COAST     SUNNY    N/A N/A N/A N6        30.19R

STATION/POSITION SKY/WX   TEMP    WIND        PRES    WAVE   SWELL
                          AIR SEA DIR/SP/G            HT/PER HT/PER
                          (F)     (DEG/KT/KT) (MB)    (FT/S) (FT/S)
SHELL POINT      NOT AVBL
KEATON BEACH               53      40/ 12/ 19 1022.6R
CEDAR KEY                  55      50/ 12/ 15 1023.0R
FERNANDINA                 54 66  340/  8/ 12 1023.4R
30.7N   81.3W                 64                N/A     4/10   2/11
MAYPORT                    55 65  350/ 11/ 15 1022.9R
31.4N   80.9W              54 62  340/ 16/ 19 1021.0    4/ 4   2/11
ST AUGUSTINE               58 65  360/ 17/ 18 1023.3R

$$
FLZ040-043>046-052-053-057-058-063-144-261500-
INTERIOR CENTRAL FLORIDA

CITY           SKY/WX    TMP DP  RH WIND       PRES   REMARKS
OCALA          SUNNY     57  28  33 N8        30.19R
THE VILLAGES     N/A     57  43  58 MISG      30.10R
LEESBURG       SUNNY     59  35  40 N9        30.20R
SANFORD        SUNNY     61  38  42 N9        30.18R
ORLANDO EXEC   SUNNY     62  37  39 N10       30.17R
ORLANDO INTL   MOSUNNY   63  40  42 N13       30.17R
KISSIMMEE      SUNNY     64  41  42 N8G16     30.18R
WINTER HAVEN   SUNNY     63  37  38 NE8       30.18R
LAKELAND       SUNNY     61  43  51 NE9       30.17R
BARTOW         SUNNY     63  36  36 N13       30.17R
OKEECHOBEE     SUNNY     63  59  88 N9G16     30.14R

$$
FLZ041-047-054-059-064-141-147-261500-
EAST CENTRAL FLORIDA

CITY           SKY/WX    TMP DP  RH WIND       PRES   REMARKS
ORMOND BEACH   SUNNY     59  41  51 NW5       30.19R
DAYTONA BEACH  SUNNY     60  40  47 NW8       30.18R
DELAND         SUNNY     59  37  44 N10       30.18R
NEW SMYRNA BEA SUNNY     64  45  48 N17       30.15R
JFK SPACE CTR  SUNNY     68  51  54 NE12G20   30.15R
TITUSVILLE     SUNNY     63  48  59 N12       30.15R
CAPE CANAVERAL SUNNY     69  50  49 N15G21    30.14R
PATRICK AFB    SUNNY     70  51  50 N16G22    30.14R
MELBOURNE      SUNNY     69  53  56 N16       30.14R
VERO BEACH     SUNNY     72  54  53 N13G22    30.13R
FT PIERCE      SUNNY     71  57  61 N12G18    30.12R
STUART         MOSUNNY   73  63  68 N9        30.13R

STATION/POSITION SKY/WX   TEMP    WIND        PRES    WAVE   SWELL
                          AIR SEA DIR/SP/G            HT/PER HT/PER
                          (F)     (DEG/KT/KT) (MB)    (FT/S) (FT/S)
TRIDENT PIER               68 71  360/ 11/ 15 1021.8R
28.4N   80.5W                 71                N/A     3/10   2/11
27.5N   80.2W                 72                N/A     5/12   2/12

$$
FLZ050-056-061-142-242-148-248-149-249-151-251-155-255-
160-260-261500-
WEST CENTRAL FLORIDA

CITY           SKY/WX    TMP DP  RH WIND       PRES   REMARKS
CRYSTAL RIVER  FAIR      55  34  44 NE10      30.19R
INVERNESS      FAIR      57  36  44 N13       30.20R
BROOKSVILLE    SUNNY     60  34  37 NE12      30.18R
CLEARWATER AIR FAIR      59  34  38 NE9       30.17R
ST PETE CLEARW SUNNY     63  35  35 NE15      30.17R
TAMPA INTL     SUNNY     63  36  36 NE9G21    30.18R
TAMPA EXEC     SUNNY     61  43  51 NE6       30.18R
PLANT CITY     SUNNY     61  43  51 NE9G16    30.19R
MACDILL AFB    SUNNY     63  41  45 E16       30.17R
PETER O KNIGHT SUNNY     63  43  48 NE15      30.17R
ST PETERSBURG  SUNNY     63  44  50 NE17      30.16R
SARASOTA       SUNNY     63  42  46 NE13G21   30.14R
VENICE         FAIR      64  55  72 NE15G21   30.15R

STATION/POSITION SKY/WX   TEMP    WIND        PRES    WAVE   SWELL
                          AIR SEA DIR/SP/G            HT/PER HT/PER
                          (F)     (DEG/KT/KT) (MB)    (FT/S) (FT/S)
27.3N   84.2W                 71                N/A     5/ 6
CLEARWATER BEACH           61      50/ 11/ 16 1021.8R
MIDDLE TAMPA BAY           62      60/ 17/ 19 1021.6R
VENICE                     63 70   50/ 14/ 17 1020.2R

$$
FLZ066-069-070-075>078-162-262-165-265-261500-
SOUTHWEST FLORIDA AND KEYS

CITY           SKY/WX    TMP DP  RH WIND       PRES   REMARKS
PUNTA GORDA    SUNNY     65  57  75 NE17G24   30.16R
FT MYERS       SUNNY     66  59  78 NE12      30.12R
SOUTHWEST INTL SUNNY     68  59  73 NE14      30.13R
NAPLES         MOSUNNY   69  64  84 NE13      30.12R
MARCO ISLAND   SUNNY     66  63  88 N12       30.12R
MARATHON       SUNNY     74  65  73 NE15      30.10R
KEY WEST NAS   MOSUNNY   73  64  73 NE13      30.11R
KEY WEST INTL  MOSUNNY   74  65  73 NE14      30.11R

STATION/POSITION SKY/WX   TEMP    WIND        PRES    WAVE   SWELL
                          AIR SEA DIR/SP/G            HT/PER HT/PER
                          (F)     (DEG/KT/KT) (MB)    (FT/S) (FT/S)
NAPLES                        72              1019.8R
26.0N   85.6W              72 74   60/ 17/ 21 1019.6R   3/ 4
DRY TORTUGAS               72      50/ 13/ 14 1019.8R
SAND KEY                   72      40/ 15/ 18 1019.8R
LONG KEY                   70 74   20/ 15/ 17 1019.7R
MOLASSES REEF              71 74   40/ 15/ 16 1019.3R

$$
FLZ067-068-071>074-168-172>174-261500-
SOUTHEAST FLORIDA

CITY           SKY/WX    TMP DP  RH WIND       PRES   REMARKS
W PALM BEACH   MOSUNNY   71  63  75 N12       30.11R
BOCA RATON     SUNNY     72  63  73 N9        30.11R
FT LAUDER-EXEC SUNNY     73  60  63 N8        30.10R
FT LAUDERDALE  MOSUNNY   72  62  71 N7        30.10R
POMPANO BEACH  SUNNY     73  62  68 N9        30.11R
PEMBROKE PINES SUNNY     72  60  66 N9        30.12R
OPA LOCKA      SUNNY     72  61  68 N9        30.11R
MIAMI          MOSUNNY   72  61  68 N9        30.11R
WEST KENDALL   SUNNY     72  62  71 N15       30.10R
HOMESTEAD      SUNNY     71  66  84 N13       30.10R

STATION/POSITION SKY/WX   TEMP    WIND        PRES    WAVE   SWELL
                          AIR SEA DIR/SP/G            HT/PER HT/PER
                          (F)     (DEG/KT/KT) (MB)    (FT/S) (FT/S)
PORT EVERGLADES            69     330/  5/  9 1019.1R
VIRGINIA KEY               71     360/  6/ 10 1019.7R
LAKE WORTH                        350/ 11/ 13   N/A
FOWEY ROCKS                71 74  360/ 15/ 15 1020.0R
SETTLEMENT POINT           75      10/ 15/ 16 1018.8R

$$





USA.gov is the U.S. government's official web portal to all federal, state and local government web resources and services.